| time (UTC) | temp C | wind direction | speed KPH | gust KPH | rain 1hr cm | rain 24hr cm | rain mn cm | humidity % | barometer mb |
| 20260502234556 | 12 | 0 | 0.0 | 1.6 | 0.00 | 0.00 | 0.00 | 55 | 1023.8 |
| 20260502233054 | 12 | 0 | 3.2 | 8.0 | 0.00 | 0.00 | 0.00 | 54 | 1023.8 |
| 20260502231554 | 12 | 0 | 0.0 | 6.4 | 0.00 | 0.00 | 0.00 | 55 | 1024.0 |
| 20260502230052 | 12 | 5 | 3.2 | 6.4 | 0.00 | 0.00 | 0.00 | 56 | 1024.1 |
| 20260502224609 | 12 | 0 | 0.0 | 6.4 | 0.00 | 0.00 | 0.00 | 53 | 1024.2 |
| 20260502223055 | 12 | 336 | 0.0 | 4.8 | 0.00 | 0.00 | 0.00 | 56 | 1024.2 |
| 20260502221554 | 12 | 0 | 0.0 | 3.2 | 0.00 | 0.00 | 0.00 | 57 | 1024.3 |
| 20260502220052 | 13 | 23 | 0.0 | 8.0 | 0.00 | 0.00 | 0.00 | 57 | 1024.2 |
| 20260502214554 | 12 | 343 | 4.8 | 8.0 | 0.00 | 0.00 | 0.00 | 57 | 1024.3 |
| 20260502213108 | 12 | 5 | 0.0 | 3.2 | 0.00 | 0.00 | 0.00 | 59 | 1024.4 |
| 20260502211608 | 12 | 0 | 0.0 | 6.4 | 0.00 | 0.00 | 0.00 | 59 | 1024.4 |
| 20260502210056 | 12 | 355 | 1.6 | 3.2 | 0.00 | 0.00 | 0.00 | 59 | 1024.4 |
| 20260502204554 | 12 | 0 | 0.0 | 4.8 | 0.00 | 0.00 | 0.00 | 58 | 1024.6 |
| 20260502203059 | 13 | 0 | 0.0 | 6.4 | 0.00 | 0.00 | 0.00 | 57 | 1024.6 |
| 20260502201557 | 13 | 0 | 0.0 | 8.0 | 0.00 | 0.00 | 0.00 | 56 | 1024.8 |
| 20260502200052 | 13 | 307 | 4.8 | 9.7 | 0.00 | 0.00 | 0.00 | 54 | 1024.8 |
| 20260502194603 | 13 | 30 | 1.6 | 9.7 | 0.00 | 0.00 | 0.00 | 53 | 1024.8 |
| 20260502193053 | 13 | 5 | 6.4 | 11.3 | 0.00 | 0.00 | 0.00 | 53 | 1024.7 |
| 20260502191555 | 13 | 340 | 4.8 | 11.3 | 0.00 | 0.00 | 0.00 | 52 | 1024.6 |
| 20260502190053 | 13 | 355 | 8.0 | 14.5 | 0.00 | 0.00 | 0.00 | 52 | 1024.3 |
| 20260502184556 | 14 | 343 | 6.4 | 12.9 | 0.00 | 0.00 | 0.00 | 52 | 1024.2 |
| 20260502183104 | 15 | 338 | 6.4 | 9.7 | 0.00 | 0.00 | 0.00 | 51 | 1024.2 |
| 20260502181553 | 16 | 58 | 3.2 | 8.0 | 0.00 | 0.00 | 0.00 | 48 | 1024.1 |
| 20260502163056 | 20 | 211 | 1.6 | 6.4 | 0.00 | 0.00 | 0.00 | 31 | 1024.3 |
| 20260502161549 | 20 | 118 | 1.6 | 9.7 | 0.00 | 0.00 | 0.00 | 37 | 1024.4 |
| 20260502151604 | 21 | 280 | 1.6 | 12.9 | 0.00 | 0.00 | 0.00 | 35 | 1024.7 |
| 20260502123053 | 20 | 211 | 8.0 | 16.1 | 0.00 | 0.00 | 0.00 | 35 | 1026.4 |
| 20260502121555 | 20 | 55 | 4.8 | 16.1 | 0.00 | 0.00 | 0.00 | 36 | 1026.5 |
| 20260502114607 | 20 | 169 | 6.4 | 12.9 | 0.00 | 0.00 | 0.00 | 36 | 1026.9 |
| 20260502113052 | 20 | 102 | 3.2 | 14.5 | 0.00 | 0.00 | 0.00 | 36 | 1027.1 |
| 20260502111556 | 19 | 117 | 8.0 | 19.3 | 0.00 | 0.00 | 0.00 | 37 | 1027.3 |
| 20260502110055 | 19 | 126 | 3.2 | 9.7 | 0.00 | 0.00 | 0.00 | 36 | 1027.6 |
| 20260502104720 | 19 | 80 | 4.8 | 12.9 | 0.00 | 0.00 | 0.00 | 36 | 1027.7 |
| 20260502104554 | 19 | 80 | 4.8 | 12.9 | 0.00 | 0.00 | 0.00 | 36 | 1027.7 |
| 20260502103055 | 18 | 311 | 1.6 | 11.3 | 0.00 | 0.00 | 0.00 | 37 | 1027.9 |
| 20260502101623 | 18 | 117 | 4.8 | 16.1 | 0.00 | 0.00 | 0.00 | 37 | 1028.2 |
| 20260502090108 | 17 | 190 | 3.2 | 9.7 | 0.00 | 0.00 | 0.00 | 39 | 1028.6 |
| 20260502080107 | 15 | 165 | 4.8 | 12.9 | 0.00 | 0.00 | 0.00 | 43 | 1028.6 |
| 20260502070059 | 14 | 108 | 0.0 | 4.8 | 0.00 | 0.00 | 0.00 | 46 | 1028.8 |
| 20260502064555 | 13 | 0 | 1.6 | 6.4 | 0.00 | 0.00 | 0.00 | 52 | 1028.8 |
| 20260502063057 | 13 | 355 | 0.0 | 3.2 | 0.00 | 0.00 | 0.00 | 47 | 1028.8 |
| 20260502061550 | 12 | 0 | 0.0 | 1.6 | 0.00 | 0.00 | 0.00 | 56 | 1028.8 |
| 20260502060051 | 11 | 0 | 0.0 | 1.6 | 0.00 | 0.00 | 0.00 | 54 | 1028.9 |
| 20260502054558 | 10 | 0 | 0.0 | 3.2 | 0.00 | 0.00 | 0.00 | 55 | 1028.9 |
| 20260502053052 | 10 | 0 | 0.0 | 0.0 | 0.00 | 0.00 | 0.00 | 55 | 1028.8 |
| 20260502051604 | 10 | 0 | 0.0 | 4.8 | 0.00 | 0.00 | 0.00 | 56 | 1028.7 |
| 20260502050054 | 9 | 0 | 0.0 | 4.8 | 0.00 | 0.00 | 0.00 | 55 | 1028.7 |
| 20260502044552 | 8 | 0 | 0.0 | 3.2 | 0.00 | 0.00 | 0.00 | 54 | 1028.7 |
| 20260502043103 | 8 | 19 | 1.6 | 6.4 | 0.00 | 0.00 | 0.00 | 53 | 1028.6 |
| 20260502041600 | 8 | 0 | 0.0 | 4.8 | 0.00 | 0.00 | 0.00 | 53 | 1028.6 |
| 20260502040059 | 8 | 0 | 0.0 | 8.0 | 0.00 | 0.00 | 0.00 | 52 | 1028.7 |
| 20260502034553 | 9 | 327 | 0.0 | 6.4 | 0.00 | 0.00 | 0.00 | 51 | 1028.7 |
| 20260502033059 | 9 | 330 | 3.2 | 11.3 | 0.00 | 0.00 | 0.00 | 50 | 1028.6 |
| 20260502031555 | 9 | 0 | 0.0 | 8.0 | 0.00 | 0.00 | 0.00 | 48 | 1028.7 |
| 20260502030105 | 9 | 343 | 3.2 | 8.0 | 0.00 | 0.00 | 0.00 | 49 | 1028.8 |
| 20260502024741 | 8 | 360 | 3.2 | 4.8 | 0.00 | 0.00 | 0.00 | 49 | 1028.8 |
| 20260502024553 | 8 | 360 | 3.2 | 4.8 | 0.00 | 0.00 | 0.00 | 49 | 1028.8 |
| 20260502023120 | 8 | 360 | 3.2 | 4.8 | 0.00 | 0.00 | 0.00 | 50 | 1028.8 |
| 20260502021557 | 8 | 20 | 1.6 | 4.8 | 0.00 | 0.00 | 0.00 | 50 | 1028.8 |
| 20260502020106 | 8 | 0 | 0.0 | 1.6 | 0.00 | 0.00 | 0.00 | 50 | 1028.9 |
| 20260502014554 | 8 | 286 | 0.0 | 3.2 | 0.00 | 0.00 | 0.00 | 50 | 1028.9 |
| 20260502013104 | 8 | 0 | 0.0 | 3.2 | 0.00 | 0.00 | 0.00 | 50 | 1028.9 |
| 20260502011554 | 8 | 0 | 0.0 | 6.4 | 0.00 | 0.00 | 0.00 | 49 | 1029.0 |
| 20260502010052 | 8 | 0 | 1.6 | 4.8 | 0.00 | 0.00 | 0.00 | 49 | 1029.0 |
| 20260502004618 | 8 | 321 | 0.0 | 6.4 | 0.00 | 0.00 | 0.00 | 49 | 1029.1 |
| 20260502003057 | 8 | 350 | 3.2 | 8.0 | 0.00 | 0.00 | 0.00 | 48 | 1029.1 |
| 20260502001605 | 8 | 338 | 4.8 | 8.0 | 0.00 | 0.00 | 0.00 | 48 | 1029.2 |